Tracking 20621 objects as of 31-Mar-2020
HD Live streaming from Space Station
objects crossing your sky now

EUTELSAT 1-F2 (ECS 2)

Track EUTELSAT 1-F2 (ECS 2) now!
EUTELSAT 1-F2 (ECS 2) is classified as:


NORAD ID: 15158
Int'l Code: 1984-081A
Perigee: 36,192.9 km
Apogee: 36,232.8 km
Inclination: 14.9 °
Period: 1,457.6 minutes
Semi major axis: 42583 km
RCS: 5.0119 m2 (large)
Launch date: August 4, 1984
Source: European Telecommunications Satellite Organization (EUTE)
Launch site: FRENCH GUIANA (FRGUI)
aabbcc
Your satellite tracking list
Your tracking list is empty




NASA's NSSDC Master Catalog

Two Line Element Set (TLE):
1 15158U 84081A   20090.14605205 -.00000063  00000-0  00000+0 0  9994
2 15158  14.9289 350.5805 0004686 125.5242  41.9859  0.98795078 94873
Source of the keplerian elements: AFSPC